Regional Weather Roundup
Issued by NWS Jackson, KY

Home | Current Version | Previous Version | Graphics & Text | Print | Product List | Glossary On
Versions: 1 2 3 4 5 6 7 8 9 10 11 12 13 14 15 16 17 18 19 20 21 22 23 24 25 26 27 28
000
ASUS43 KJKL 211210
RWRJKL

EAST KENTUCKY HOURLY WEATHER ROUNDUP
NATIONAL WEATHER SERVICE JACKSON KY
800 AM EDT MON AUG 21 2017

NOTE: "FAIR" INDICATES FEW OR NO CLOUDS BELOW 12,000 FEET WITH
NO SIGNIFICANT WEATHER AND/OR OBSTRUCTIONS TO VISIBILITY.

* THESE REPORTS ARE NOT UNDER NWS QUALITY CONTROL AND MAY NOT
  REPORT WEATHER SUCH AS PRECIPITATION AND FOG.

KYZ079-080-083-085-087-088-110-112-115-119-120-211300
...EASTERN KENTUCKY...

CITY           SKY/WX    TMP DP  RH WIND       PRES   REMARKS
JACKSON        SUNNY     70  67  90 CALM      30.23R
6HR MIN TEMP:  68; 6HR MAX TEMP:  73;

LONDON         SUNNY     67  65  93 CALM      30.22R
6HR MIN TEMP:  65; 6HR MAX TEMP:  69;

SOMERSET*      MOSUNNY   66  66 100 CALM      30.22R
MONTICELLO*    SUNNY     67  67 100 VRB5      30.22R
6HR MIN TEMP:  65; 6HR MAX TEMP:  67;

WILLIAMSBURG*  CLOUDY    66  66 100 SE3       30.22R VSB 1/2
MIDDLESBORO*   FOG       66  66 100 CALM      30.25R VSB 1/4
6HR MIN TEMP:  66; 6HR MAX TEMP:  67;

HARLAN APT*    CLOUDY    66  64  94 CALM      30.26R VSB 1
PIKE CO APT*   FOG       67  67 100 S3        30.23S VSB<1/4
BIG SANDY APT* SUNNY     72  71  98 CALM      30.22S
6HR MIN TEMP:  68; 6HR MAX TEMP:  73;

MOREHEAD APT*  SUNNY     70  66  88 CALM      30.22R
$$

KYZ035-036-041-042-044-050-067-078-099-211300
...CENTRAL KENTUCKY...

CITY           SKY/WX    TMP DP  RH WIND       PRES   REMARKS
MT STERLING*   SUNNY     70  66  88 CALM      30.22R
FLEMING/MASON* SUNNY     71  68  90 S5        30.21R
DANVILLE*      SUNNY     68  64  88 S3        30.22R
LEXINGTON      MOSUNNY   72  65  78 CALM      30.20R
6HR MIN TEMP:  70; 6HR MAX TEMP:  74;

FRANKFORT      SUNNY     69  65  86 CALM      30.18R
6HR MIN TEMP:  67; 6HR MAX TEMP:  74;

LOUISVILLE     MOSUNNY   75  68  78 SE3       30.16R
6HR MIN TEMP:  73; 6HR MAX TEMP:  80;

LEBANON*         N/A     72  64  78 S5        30.19R
GLASGOW*       CLEAR     68  68 100 CALM      30.18R
BOWLING GREEN  CLEAR     71  70  96 CALM      30.17R
6HR MIN TEMP:  69; 6HR MAX TEMP:  74;

$$

KYZ091>093-OHZ055-061-077-WVZ005-015-034-035-042-211300
...SOUTHERN OHIO/WEST VIRGINIA...

CITY           SKY/WX    TMP DP  RH WIND       PRES   REMARKS
COVINGTON      PTSUNNY   73  70  90 SW3       30.17R
COLUMBUS       PTSUNNY   73  70  90 S5        30.15S
DAYTON         PTSUNNY   74  67  78 SW6       30.16S
WILMINGTON     PTSUNNY   72  70  93 S3        30.17R
HUNTINGTON     SUNNY     69  67  93 CALM      30.20R FOG
CHARLESTON     MOSUNNY   67  66  97 CALM      30.21S
PINEVILLE*     SUNNY     65  64  97 MISG      30.31S
BECKLEY        SUNNY     68  64  87 CALM      30.30R
BLUEFIELD      MOSUNNY   69  62  78 CALM      30.33R
LOGAN CO APT*    N/A     70  68  94 CALM      30.24S
$$

VAZ002-007-008-TNZ017-027-036-066-071-211300
...SOUTHWEST VIRGINIA/EAST TENNESSEE...

CITY           SKY/WX    TMP DP  RH WIND       PRES   REMARKS
WISE*          SUNNY     70  68  94 CALM      30.31S
JONESVILLE*      N/A     66  64  94 CALM      30.27S
ABINGDON*      SUNNY     71  68  93 CALM      30.30R
BRISTOL        MOSUNNY   69  67  93 CALM      30.26R
MORRISTOWN*    SUNNY     70  68  94 CALM      30.23R
SEVIERVILLE*   SUNNY     66  64  94 CALM      30.22R
KNOXVILLE      MOSUNNY   69  67  93 E3        30.21R
LAFOLLETTE*    FOG       66  66 100 CALM      30.27R VSB 1
OAK RIDGE      FOG       69  68  96 CALM      30.23R VSB 1/4
CROSSVILLE     SUNNY     66  65  96 CALM      30.26R
NASHVILLE      PTCLDY    73  70  90 CALM      30.17R
$$

...KEY TO REMARKS...
VSB - VISIBILITY IN MILES
WCI - WIND CHILL INDEX
HX  - HEAT INDEX

$$




USA.gov is the U.S. government's official web portal to all federal, state and local government web resources and services.